Galax, VA

5:32 AM EST on December 17, 2017 (GMT -0500)
Twin County

Weather History for KHLX - June, 2014

Change the Weather History Date:

Thursday, June 19, 2014

  Actual Average (KBLF) Record (KBLF)
Temperature  
Mean Temperature 74 °F -  
Max Temperature 84 °F 77 °F 88 °F (2007)
Min Temperature 64 °F 60 °F 48 °F (1965)
Cooling Degree Days 9    
Growing Degree Days 24 (Base 50)    
Moisture  
Dew Point 65 °F    
Average Humidity 74    
Maximum Humidity 93    
Minimum Humidity 48    
Precipitation  
Precipitation 0.01 in - - ()
Sea Level Pressure  
Sea Level Pressure 30.19 in    
Wind  
Wind Speed 6 mph (West)    
Max Wind Speed 17 mph    
Max Gust Speed 22 mph    
Visibility 10 miles    
Events Thunderstorm    
Averages and records for this station are not official NWS values.
T = Trace of Precipitation, MM = Missing Value Source: NWS Daily Summary

Daily Weather History Graph

Daily Weather History Graph

Search for Another Location

Airport or City:

Trip Planner

Search our weather history database for the weather conditions in past years. The results will help you decide how hot, cold, wet, or windy it might be!

Date:

Astronomy

Jun. 19, 2014 Rise Set
Actual Time 6:04 AM EDT 8:45 PM EDT
Civil Twilight 5:33 AM EDT 9:15 PM EDT
Nautical Twilight 4:55 AM EDT 9:54 PM EDT
Astronomical Twilight 4:12 AM EDT 10:37 PM EDT
Moon 12:57 AM EDT (6/19) 1:22 PM EDT (6/19)
Length of Visible Light 15h 42m
Length of Day
14h 40m
Waning Gibbous, 51% of the Moon is Illuminated
Jun 19
Waning Gibbous
Jun 19
Last Quarter
Jun 27
New
Jul 5
First Quarter
Jul 12
Full

Hourly Weather History & Observations

Time (EDT) Temp. Heat Index Dew Point Humidity Pressure Visibility Wind Dir Wind Speed Gust Speed Precip Events Conditions
12:15 AM 70.0 °F - 65.1 °F 85% 30.22 in 10.0 mi WSW 4.6 mph - N/A   Clear
12:35 AM 71.2 °F - 64.6 °F 79% 30.21 in 10.0 mi WSW 4.6 mph - N/A   Clear
12:55 AM 71.4 °F - 64.4 °F 78% 30.20 in 10.0 mi WSW 3.5 mph - N/A   Clear
1:15 AM 71.6 °F - 64.2 °F 77% 30.20 in 10.0 mi West 3.5 mph - N/A   Clear
1:35 AM 69.4 °F - 64.6 °F 84% 30.20 in 10.0 mi SSW 3.5 mph - N/A   Clear
1:55 AM 68.9 °F - 64.9 °F 87% 30.21 in 10.0 mi WSW 4.6 mph - N/A   Clear
2:15 AM 68.4 °F - 64.6 °F 88% 30.20 in 10.0 mi Calm Calm - N/A   Clear
2:35 AM 67.6 °F - 64.4 °F 89% 30.19 in 10.0 mi SW 4.6 mph - N/A   Clear
2:55 AM 67.1 °F - 64.0 °F 90% 30.19 in 10.0 mi WSW 3.5 mph - N/A   Clear
3:15 AM 66.4 °F - 63.7 °F 91% 30.19 in 10.0 mi Calm Calm - N/A   Clear
3:35 AM 66.2 °F - 63.9 °F 92% 30.18 in 10.0 mi Calm Calm - N/A   Clear
3:55 AM 65.7 °F - 63.5 °F 93% 30.18 in 10.0 mi SSW 3.5 mph - N/A   Clear
4:15 AM 66.0 °F - 63.5 °F 92% 30.18 in 10.0 mi WSW 3.5 mph - N/A   Clear
4:35 AM 66.2 °F - 63.7 °F 92% 30.19 in 10.0 mi West 3.5 mph - N/A   Clear
4:55 AM 66.2 °F - 63.5 °F 91% 30.19 in 10.0 mi West 4.6 mph - N/A   Clear
5:15 AM 66.4 °F - 63.5 °F 90% 30.20 in 10.0 mi West 3.5 mph - N/A   Clear
6:15 AM 66.6 °F - 63.3 °F 89% 30.21 in 10.0 mi West 4.6 mph - N/A   Clear
6:35 AM 66.2 °F - 63.1 °F 90% 30.21 in 10.0 mi West 3.5 mph - N/A   Clear
6:55 AM 64.6 °F - 62.6 °F 93% 30.21 in 10.0 mi Calm Calm - N/A   Clear
7:15 AM 67.1 °F - 63.7 °F 89% 30.22 in 10.0 mi West 5.8 mph - N/A   Clear
7:35 AM 68.0 °F - 64.2 °F 88% 30.22 in 10.0 mi WSW 3.5 mph - N/A   Clear
7:55 AM 68.2 °F - 64.4 °F 88% 30.21 in 10.0 mi WSW 5.8 mph - N/A   Clear
8:15 AM 70.0 °F - 64.6 °F 83% 30.22 in 10.0 mi WSW 5.8 mph - N/A   Clear
8:35 AM 70.0 °F - 64.9 °F 84% 30.22 in 10.0 mi WNW 8.1 mph - N/A   Clear
8:55 AM 71.8 °F - 65.5 °F 80% 30.23 in 10.0 mi WNW 6.9 mph - N/A   Clear
9:15 AM 73.4 °F - 66.2 °F 78% 30.23 in 10.0 mi WNW 8.1 mph - N/A   Clear
9:35 AM 74.3 °F - 66.4 °F 76% 30.23 in 10.0 mi West 8.1 mph - N/A   Clear
9:55 AM 75.9 °F - 66.4 °F 72% 30.23 in 10.0 mi WNW 10.4 mph 19.6 mph N/A   Clear
10:15 AM 76.6 °F - 66.2 °F 70% 30.22 in 10.0 mi WNW 15.0 mph 18.4 mph N/A   Clear
10:55 AM 78.8 °F - 65.5 °F 64% 30.22 in 10.0 mi WNW 13.8 mph 18.4 mph N/A   Clear
11:15 AM 79.3 °F - 65.1 °F 62% 30.22 in 10.0 mi WNW 15.0 mph 20.7 mph N/A   Clear
11:35 AM 79.0 °F - 64.0 °F 60% 30.22 in 10.0 mi WNW 12.7 mph 21.9 mph N/A   Scattered Clouds
11:55 AM 80.6 °F 82.3 °F 64.8 °F 58% 30.21 in 10.0 mi NNW 17.3 mph 21.9 mph N/A   Scattered Clouds
12:15 PM 80.4 °F 82.2 °F 64.8 °F 59% 30.21 in 10.0 mi WNW 9.2 mph 19.6 mph N/A   Scattered Clouds
12:35 PM 81.1 °F 82.8 °F 64.8 °F 57% 30.21 in 10.0 mi WNW 11.5 mph - N/A   Scattered Clouds
12:55 PM 81.3 °F 82.7 °F 63.9 °F 55% 30.21 in 10.0 mi WNW 11.5 mph 17.3 mph N/A   Scattered Clouds
1:15 PM 82.6 °F 83.6 °F 62.6 °F 51% 30.21 in 10.0 mi WNW 13.8 mph 21.9 mph N/A   Scattered Clouds
1:35 PM 82.2 °F 83.3 °F 62.8 °F 52% 30.21 in 10.0 mi NW 13.8 mph - N/A   Scattered Clouds
1:55 PM 83.3 °F 84.4 °F 63.5 °F 51% 30.19 in 10.0 mi WNW 9.2 mph - N/A   Scattered Clouds
2:15 PM 83.1 °F 84.2 °F 63.5 °F 51% 30.19 in 10.0 mi NW 9.2 mph - N/A   Mostly Cloudy
2:35 PM 84.2 °F 85.0 °F 62.8 °F 48% 30.19 in 10.0 mi West 9.2 mph 17.3 mph N/A   Mostly Cloudy
2:55 PM 84.4 °F 85.4 °F 63.3 °F 49% 30.18 in 10.0 mi NW 9.2 mph - N/A   Mostly Cloudy
3:15 PM 82.0 °F 82.8 °F 61.5 °F 50% 30.18 in 10.0 mi NW 13.8 mph 18.4 mph N/A Thunderstorm Mostly Cloudy
3:35 PM 71.4 °F - 66.2 °F 84% 30.18 in 10.0 mi South 4.6 mph - 0.01 in   Unknown
3:55 PM 76.6 °F - 66.0 °F 70% 30.17 in 10.0 mi WSW 4.6 mph - 0.01 in Thunderstorm Clear
4:15 PM 80.1 °F 82.0 °F 65.5 °F 61% 30.17 in 10.0 mi WSW 6.9 mph - N/A   Clear
4:35 PM 82.4 °F 84.2 °F 65.1 °F 56% 30.17 in 10.0 mi WSW 6.9 mph - N/A   Clear
4:55 PM 81.9 °F 83.7 °F 65.5 °F 57% 30.16 in 10.0 mi West 6.9 mph - N/A   Scattered Clouds
5:15 PM 78.4 °F - 64.9 °F 63% 30.16 in 10.0 mi WSW 11.5 mph 17.3 mph N/A   Mostly Cloudy
5:35 PM 75.7 °F - 65.5 °F 70% 30.16 in 10.0 mi WSW 4.6 mph - N/A   Scattered Clouds
5:55 PM 78.3 °F - 66.0 °F 66% 30.17 in 10.0 mi WNW 6.9 mph - N/A   Clear
6:15 PM 78.1 °F - 65.7 °F 65% 30.17 in 10.0 mi WNW 8.1 mph - N/A   Clear
6:35 PM 77.2 °F - 66.2 °F 69% 30.16 in 10.0 mi WNW 9.2 mph - N/A   Clear
6:55 PM 76.8 °F - 65.7 °F 68% 30.17 in 10.0 mi West 4.6 mph - N/A   Clear
7:15 PM 76.1 °F - 66.0 °F 71% 30.17 in 10.0 mi West 3.5 mph - N/A   Clear
7:35 PM 76.1 °F - 66.2 °F 71% 30.18 in 10.0 mi Calm Calm - N/A   Clear
7:55 PM 75.4 °F - 65.8 °F 72% 30.17 in 10.0 mi WNW 4.6 mph - N/A   Clear
8:15 PM 75.2 °F - 65.5 °F 72% 30.17 in 10.0 mi WNW 5.8 mph - N/A   Clear
8:35 PM 74.7 °F - 65.5 °F 73% 30.16 in 10.0 mi NW 9.2 mph - N/A   Clear
8:55 PM 73.8 °F - 66.2 °F 77% 30.16 in 10.0 mi NW 9.2 mph - N/A   Clear
9:15 PM 72.9 °F - 66.2 °F 80% 30.16 in 10.0 mi West 3.5 mph - N/A   Clear
9:35 PM 72.5 °F - 66.4 °F 81% 30.17 in 10.0 mi WNW 9.2 mph - N/A   Clear
9:55 PM 72.0 °F - 65.5 °F 80% 30.17 in 10.0 mi WNW 9.2 mph - N/A   Clear
10:15 PM 71.1 °F - 63.1 °F 76% 30.18 in 10.0 mi WNW 9.2 mph - N/A   Clear
10:35 PM 70.3 °F - 62.6 °F 76% 30.18 in 10.0 mi West 6.9 mph - N/A   Clear
10:55 PM 69.4 °F - 63.0 °F 80% 30.18 in 10.0 mi WNW 6.9 mph - N/A   Clear
11:15 PM 68.7 °F - 63.1 °F 82% 30.18 in 10.0 mi West 5.8 mph - N/A   Clear
11:35 PM 68.5 °F - 62.6 °F 81% 30.18 in 10.0 mi WNW 6.9 mph - N/A   Clear